Regional Weather Roundup
Issued by NWS

Home | Current Version | Previous Version | Text Only | Print | Product List | Glossary On
Versions: 1 2 3 4 5 6 7 8 9 10 11 12 13 14 15 16 17 18 19 20 21 22 23 24 25 26 27 28 29 30 31 32 33 34 35 36 37 38 39 40 41 42 43 44 45 46 47 48 49 50
000
ASUS43 KFSD 171610
RWRSD

WEATHER ROUNDUP FOR SOUTH DAKOTA
NATIONAL WEATHER SERVICE SIOUX FALLS SD
1100 AM CDT THU APR 17 2014

NOTE: "FAIR" INDICATES FEW OR NO CLOUDS BELOW 12,000 FEET WITH NO
SIGNIFICANT WEATHER AND/OR OBSTRUCTIONS TO VISIBILITY.


SDZ001>005-009-010-012>017-171700-
NORTHWEST AND NORTH CENTRAL SOUTH DAKOTA

CITY           SKY/WX    TMP DP  RH WIND       PRES   REMARKS
BUFFALO          N/A     31  28  89 SE18      30.05F WCI  19
FAITH            N/A     33  21  61 SE20G26   30.20S WCI  21
MOBRIDGE       CLOUDY    34  17  50 SE9       30.27S WCI  27
$$

SDZ012>016-024>037-041>051-057-063-072>074-171700-
SOUTHWEST AND SOUTH CENTRAL SOUTH DAKOTA

CITY           SKY/WX    TMP DP  RH WIND       PRES   REMARKS
RAPID CTY ARPT CLOUDY    38  29  70 S21       30.13S
PIERRE         CLOUDY    36  22  56 SE10      30.29S
CUSTER         CLOUDY    30  28  92 SW8       30.07S WCI  22
ELLSWORTH AFB  CLOUDY    39  30  69 S20G26    30.12S
PHILIP         CLOUDY    34  23  64 SE9       30.24S WCI  27
PINE RIDGE     CLOUDY    37  30  75 S13       30.17S
SPEARFISH      FAIR      39  32  75 NE8       30.08S
WINNER         FAIR      38  19  46 E7        30.30S
$$

SDZ004>011-016>023-039-040-171700-
NORTHEAST SOUTH DAKOTA

CITY           SKY/WX    TMP DP  RH WIND       PRES   REMARKS
ABERDEEN       MOSUNNY   34  21  59 CALM      30.34R
WATERTOWN      SUNNY     31  18  58 N5        30.31R WCI  26
SISSETON         N/A     32  23  69 N9        30.33R WCI  24
$$

SDZ017-020-022-023-036>040-048>070-171700-
SOUTHEAST SOUTH DAKOTA

CITY           SKY/WX    TMP DP  RH WIND       PRES   REMARKS
SIOUX FALLS    MOSUNNY   31  24  75 NE10      30.33R WCI  22
HURON          MOSUNNY   34  20  56 NE6       30.34R WCI  29
CHAMBERLAIN      N/A     36  19  50 E6        30.33R
MITCHELL       SUNNY     38  15  39 NE9       30.34S
YANKTON        SUNNY     36  23  60 N5        30.36R
$$

ABBREVIATIONS USED IN REMARKS
   TC - TEMPERATURE IN CELSIUS
  WCI - WIND CHILL INDEX
   HX - HEAT INDEX
  VSB - VISIBILITY




USA.gov is the U.S. government's official web portal to all federal, state and local government web resources and services.